Date,TemperatureHighF,TemperatureAvgF,TemperatureLowF,DewpointHighF,DewpointAvgF,DewpointLowF,HumidityHigh,HumidityAvg,HumidityLow,PressureMaxIn,PressureMinIn,WindSpeedMaxMPH,WindSpeedAvgMPH,GustSpeedMaxMPH,PrecipitationSumIn
2013-3-1,45,39,35,23,19,16,58,45,37,29.06,29.00,10,5,15,0.04
2013-3-2,37,35,32,23,20,16,65,54,43,29.12,29.03,10,5,15,0.00
2013-3-3,45,34,26,23,14,8,65,45,28,29.15,29.09,10,5,16,0.00
2013-3-4,65,44,25,27,20,12,68,42,23,29.21,29.03,9,4,15,0.00
2013-3-5,66,52,35,52,37,20,78,57,42,29.09,28.76,16,7,25,1.22
2013-3-6,46,37,30,25,17,11,67,44,37,29.23,29.03,15,6,29,1.22
2013-3-7,61,43,29,24,21,18,64,44,24,29.29,29.21,8,4,15,0.87
2013-3-8,67,46,29,28,23,19,73,43,20,29.35,29.23,7,3,15,0.00
2013-3-9,71,52,34,30,25,21,64,37,22,29.32,29.15,11,5,14,0.00
2013-3-10,76,61,49,38,31,26,42,33,24,29.18,29.03,15,6,21,0.00
2013-3-11,64,55,43,52,45,34,90,70,43,29.06,28.85,13,6,26,1.24
2013-3-12,59,45,34,39,27,23,87,54,26,29.15,28.94,10,5,15,1.22
2013-3-13,57,43,31,37,22,13,82,47,24,29.32,29.15,12,5,19,0.16
2013-3-14,58,41,29,19,14,10,50,35,19,29.41,29.26,9,4,14,0.16
2013-3-15,76,52,31,34,28,19,69,43,22,29.29,29.06,11,4,18,0.00
2013-3-16,76,60,48,36,33,30,58,38,21,29.09,28.94,14,6,18,0.04
2013-3-17,68,57,43,54,42,36,85,59,36,29.06,28.94,10,4,16,0.04
2013-3-18,76,60,51,59,52,48,91,78,41,29.00,28.79,15,5,18,2.73
2013-3-19,66,54,44,51,33,20,94,52,20,29.12,28.88,10,5,21,2.72
2013-3-20,60,49,39,28,18,13,57,31,22,29.18,28.97,10,4,15,0.28
2013-3-21,53,42,31,20,15,10,56,35,20,29.06,28.94,10,4,15,0.00
2013-3-22,57,45,36,36,26,12,65,48,29,29.09,29.00,8,4,12,0.00
2013-3-23,62,52,47,53,43,35,89,70,57,29.03,28.70,10,4,16,0.63
2013-3-24,66,53,41,56,44,19,93,74,39,28.82,28.59,15,6,22,0.67
2013-3-25,49,40,35,20,15,11,44,36,27,29.15,28.82,14,7,23,1.97
2013-3-26,41,36,28,19,15,10,59,44,34,29.32,29.15,12,4,22,0.20
2013-3-27,58,40,24,24,17,9,73,41,25,29.38,29.26,10,3,15,0.04
2013-3-28,65,46,30,39,24,19,81,47,23,29.38,29.26,11,2,15,0.00
2013-3-29,73,53,34,39,28,24,77,44,21,29.35,29.18,11,3,14,0.00
2013-3-30,74,60,46,51,38,-100,80,49,26,29.21,29.03,11,3,21,0.24
2013-3-31,69,60,56,58,52,44,92,75,43,29.06,28.88,10,4,15,0.24